GW5593 Weather Reports


Display with metric or nautical units.
time (UTC)temp
F
wind
direction
speed
MPH
gust
MPH
rain 1hr
in
rain 24hr
in
rain mn
in
humidity
%
barometer
mb
20260503202144 63 203 4.0 7.0 0.00 0.00 0.00 45 1014.0
20260503201643 63 252 4.0 6.0 0.00 0.00 0.00 46 1015.0
20260503201143 63 210 5.0 11.0 0.00 0.00 0.00 45 1015.0
20260503200646 64 215 4.0 11.0 0.00 0.00 0.00 44 1015.0
20260503200143 62 200 3.0 5.0 0.00 0.00 0.00 45 1014.0
20260503195644 62 203 5.0 9.0 0.00 0.00 0.00 44 1015.0
20260503195143 62 262 3.0 8.0 0.00 0.00 0.00 46 1015.0
20260503194644 62 221 5.0 8.0 0.00 0.00 0.00 45 1015.0
20260503194143 62 231 5.0 8.0 0.00 0.00 0.00 45 1015.0
20260503193643 62 193 3.0 5.0 0.00 0.00 0.00 46 1015.0
20260503193143 63 195 4.0 6.0 0.00 0.00 0.00 44 1015.0
20260503192643 63 255 5.0 8.0 0.00 0.00 0.00 45 1015.0
20260503192144 64 114 3.0 6.0 0.00 0.00 0.00 44 1015.0
20260503191643 63 249 4.0 7.0 0.00 0.00 0.00 45 1015.0
20260503191144 63 216 3.0 5.0 0.00 0.00 0.00 45 1015.0
20260503190643 63 216 3.0 6.0 0.00 0.00 0.00 45 1015.0
20260503190143 63 211 5.0 7.0 0.00 0.00 0.00 46 1015.0
20260503185643 63 242 4.0 8.0 0.00 0.00 0.00 44 1015.0
20260503185143 62 228 3.0 6.0 0.00 0.00 0.00 48 1015.0
20260503184643 62 184 3.0 8.0 0.00 0.00 0.00 45 1015.0
20260503184143 63 223 5.0 7.0 0.00 0.00 0.00 44 1016.0
20260503183644 63 218 3.0 5.0 0.00 0.00 0.00 46 1016.0
20260503183145 63 248 4.0 8.0 0.00 0.00 0.00 44 1016.0
20260503182643 62 217 5.0 10.0 0.00 0.00 0.00 45 1016.0
20260503182145 62 257 3.0 7.0 0.00 0.00 0.00 45 1016.0
20260503181643 62 221 4.0 7.0 0.00 0.00 0.00 45 1016.0
20260503181147 62 188 4.0 9.0 0.00 0.00 0.00 44 1016.0
20260503180644 61 214 3.0 5.0 0.00 0.00 0.00 45 1017.0
20260503180143 61 209 3.0 7.0 0.00 0.00 0.00 46 1017.0
20260503175644 61 278 6.0 10.0 0.00 0.00 0.00 45 1017.0
20260503175143 61 241 4.0 5.0 0.00 0.00 0.00 45 1017.0
20260503174207 61 208 4.0 8.0 0.00 0.00 0.00 44 1017.0
20260503173644 60 218 5.0 9.0 0.00 0.00 0.00 43 1017.0
20260503173144 60 230 5.0 8.0 0.00 0.00 0.00 44 1017.0
20260503172643 61 208 5.0 9.0 0.00 0.00 0.00 43 1017.0
20260503172144 61 203 5.0 9.0 0.00 0.00 0.00 41 1017.0
20260503171644 61 196 5.0 9.0 0.00 0.00 0.00 41 1017.0
20260503171145 60 258 3.0 8.0 0.00 0.00 0.00 43 1017.0
20260503170643 60 204 3.0 5.0 0.00 0.00 0.00 44 1017.0
20260503170145 59 268 5.0 10.0 0.00 0.00 0.00 43 1017.0
20260503160144 59 229 4.0 9.0 0.00 0.00 0.00 43 1018.0
20260503150643 57 237 5.0 8.0 0.00 0.00 0.00 48 1019.0
20260503150147 57 253 3.0 7.0 0.00 0.00 0.00 48 1019.0
20260503140146 53 262 4.0 9.0 0.00 0.00 0.00 51 1019.0
20260503131144 49 212 3.0 6.0 0.00 0.00 0.00 57 1019.0
20260503130645 48 215 4.0 7.0 0.00 0.00 0.00 58 1019.0
20260503130145 48 202 4.0 9.0 0.00 0.00 0.00 59 1019.0
20260503120143 42 181 2.0 4.0 0.00 0.00 0.00 68 1019.0
20260503110643 38 99 0.0 1.0 0.00 0.00 0.00 77 1019.0
20260503110144 38 356 0.0 0.0 0.00 0.00 0.00 76 1019.0
20260503100147 38 183 1.0 2.0 0.00 0.00 0.00 75 1018.0
20260503090145 38 194 1.0 3.0 0.00 0.00 0.00 75 1018.0
20260503081143 38 0 0.0 0.0 0.00 0.00 0.00 78 1018.0
20260503080643 38 215 0.0 1.0 0.00 0.00 0.00 78 1018.0
20260503080143 38 0 0.0 0.0 0.00 0.00 0.00 78 1018.0
20260503072644 39 326 0.0 2.0 0.00 0.00 0.00 77 1018.0
20260503072145 39 141 0.0 1.0 0.00 0.00 0.00 77 1018.0
20260503071644 39 289 0.0 1.0 0.00 0.00 0.00 76 1018.0
20260503071143 39 281 0.0 1.0 0.00 0.00 0.00 78 1018.0
20260503070644 39 0 0.0 0.0 0.00 0.00 0.00 77 1018.0
20260503070143 39 0 0.0 0.0 0.00 0.00 0.00 77 1018.0
20260503060144 39 334 0.0 2.0 0.00 0.00 0.00 77 1019.0
20260503054643 39 0 0.0 0.0 0.00 0.00 0.00 77 1019.0
20260503054144 39 0 0.0 0.0 0.00 0.00 0.00 77 1019.0
20260503053644 39 24 0.0 2.0 0.00 0.00 0.00 77 1019.0
20260503053143 39 56 0.0 1.0 0.00 0.00 0.00 77 1019.0
20260503052644 39 52 0.0 1.0 0.00 0.00 0.00 77 1019.0
20260503052143 39 69 0.0 0.0 0.00 0.00 0.00 76 1019.0
20260503051643 39 355 0.0 2.0 0.00 0.00 0.00 77 1019.0
20260503051143 39 108 0.0 1.0 0.00 0.00 0.00 78 1019.0
20260503050644 38 209 0.0 1.0 0.00 0.00 0.00 79 1019.0
20260503050146 38 0 0.0 0.0 0.00 0.00 0.00 79 1019.0
20260503045644 38 0 0.0 0.0 0.00 0.00 0.00 80 1019.0
20260503045143 39 0 0.0 0.0 0.00 0.00 0.00 80 1019.0
20260503044643 39 88 0.0 0.0 0.00 0.00 0.00 79 1019.0
20260503044143 39 0 0.0 0.0 0.00 0.00 0.00 79 1019.0
20260503043643 38 0 0.0 0.0 0.00 0.00 0.00 81 1019.0
20260503043143 38 279 0.0 1.0 0.00 0.00 0.00 84 1019.0
20260503042644 37 0 0.0 0.0 0.00 0.00 0.00 87 1019.0
20260503042143 37 0 0.0 0.0 0.00 0.00 0.00 87 1019.0
20260503041646 37 0 0.0 0.0 0.00 0.00 0.00 87 1019.0
20260503041143 37 33 0.0 1.0 0.00 0.00 0.00 87 1019.0
20260503040644 37 146 0.0 1.0 0.00 0.00 0.00 88 1019.0
20260503040143 37 88 0.0 0.0 0.00 0.00 0.00 87 1019.0
20260503035643 37 92 0.0 0.0 0.00 0.00 0.00 88 1019.0
20260503034705 38 45 0.0 1.0 0.00 0.00 0.00 87 1019.0
20260503034143 38 56 0.0 1.0 0.00 0.00 0.00 86 1019.0
20260503033643 38 171 0.0 1.0 0.00 0.00 0.00 85 1019.0
20260503033143 38 99 0.0 1.0 0.00 0.00 0.00 85 1019.0
20260503032644 38 23 0.0 1.0 0.00 0.00 0.00 86 1019.0
20260503032146 38 87 0.0 0.0 0.00 0.00 0.00 85 1019.0
20260503031644 38 0 0.0 0.0 0.00 0.00 0.00 84 1019.0
20260503031143 38 60 0.0 1.0 0.00 0.00 0.00 83 1019.0
20260503030643 38 0 0.0 0.0 0.00 0.00 0.00 80 1019.0
20260503030143 39 76 0.0 1.0 0.00 0.00 0.00 78 1019.0
20260503025643 39 0 0.0 0.0 0.00 0.00 0.00 78 1019.0
20260503025143 40 118 0.0 0.0 0.00 0.00 0.00 77 1019.0
20260503024645 40 100 0.0 0.0 0.00 0.00 0.00 76 1019.0
20260503024143 40 0 0.0 0.0 0.00 0.00 0.00 74 1019.0
20260503023644 41 38 0.0 1.0 0.00 0.00 0.00 73 1019.0
20260503023150 41 0 0.0 0.0 0.00 0.00 0.00 72 1019.0
20260503022644 42 0 0.0 0.0 0.00 0.00 0.00 72 1019.0
20260503022143 42 327 0.0 0.0 0.00 0.00 0.00 71 1019.0
20260503021644 42 0 0.0 0.0 0.00 0.00 0.00 72 1019.0
20260503021144 42 0 0.0 0.0 0.00 0.00 0.00 72 1019.0
20260503020643 42 0 0.0 0.0 0.00 0.00 0.00 70 1019.0
20260503020144 42 0 0.0 0.0 0.00 0.00 0.00 68 1019.0
20260503015643 42 0 0.0 0.0 0.00 0.00 0.00 67 1019.0
20260503015143 42 0 0.0 0.0 0.00 0.00 0.00 65 1019.0
20260503014645 42 0 0.0 0.0 0.00 0.00 0.00 64 1019.0
20260503014143 43 0 0.0 0.0 0.00 0.00 0.00 62 1019.0
20260503013643 43 77 0.0 0.0 0.00 0.00 0.00 61 1019.0
20260503013143 43 37 0.0 0.0 0.00 0.00 0.00 61 1019.0
20260503012644 44 218 0.0 0.0 0.00 0.00 0.00 60 1019.0
20260503012145 44 0 0.0 0.0 0.00 0.00 0.00 59 1019.0
20260503011643 45 0 0.0 0.0 0.00 0.00 0.00 57 1019.0
20260503011143 45 0 0.0 0.0 0.00 0.00 0.00 56 1019.0
20260503010644 46 0 0.0 0.0 0.00 0.00 0.00 55 1019.0
20260503010145 46 0 0.0 0.0 0.00 0.00 0.00 54 1019.0
20260503005646 47 0 0.0 0.0 0.00 0.00 0.00 53 1019.0
20260503005144 47 0 0.0 0.0 0.00 0.00 0.00 53 1019.0
20260503004644 48 26 0.0 1.0 0.00 0.00 0.00 50 1019.0
20260503004143 48 33 0.0 1.0 0.00 0.00 0.00 50 1019.0
20260503003643 49 282 0.0 2.0 0.00 0.00 0.00 49 1019.0
20260503003144 49 314 1.0 3.0 0.00 0.00 0.00 47 1019.0
20260503002643 49 336 0.0 1.0 0.00 0.00 0.00 47 1018.0
20260503002143 49 318 1.0 3.0 0.00 0.00 0.00 46 1018.0
20260503001644 50 290 1.0 2.0 0.00 0.00 0.00 46 1018.0
20260503001145 50 311 2.0 2.0 0.00 0.00 0.00 44 1018.0
20260503000643 50 289 2.0 4.0 0.00 0.00 0.00 44 1018.0
20260503000143 51 319 2.0 3.0 0.00 0.00 0.00 44 1018.0
20260502235644 51 335 2.0 4.0 0.00 0.00 0.00 44 1018.0
20260502235144 51 335 1.0 3.0 0.00 0.00 0.00 42 1018.0
20260502234643 52 29 2.0 3.0 0.00 0.00 0.00 41 1018.0
20260502234143 52 333 2.0 5.0 0.00 0.00 0.00 42 1018.0
20260502233643 52 230 1.0 2.0 0.00 0.00 0.00 44 1018.0
20260502233143 51 3 2.0 4.0 0.00 0.00 0.00 42 1018.0
20260502232643 51 326 0.0 1.0 0.00 0.00 0.00 44 1018.0
20260502232144 51 320 2.0 3.0 0.00 0.00 0.00 45 1018.0
20260502231643 51 340 1.0 3.0 0.00 0.00 0.00 45 1018.0
20260502231143 52 226 0.0 1.0 0.00 0.00 0.00 43 1018.0
20260502230643 52 357 1.0 4.0 0.00 0.00 0.00 43 1018.0
20260502230143 52 252 2.0 4.0 0.00 0.00 0.00 44 1018.0
20260502225643 53 299 2.0 3.0 0.00 0.00 0.00 43 1018.0
20260502225143 53 329 1.0 2.0 0.00 0.00 0.00 42 1018.0
20260502224643 53 315 3.0 4.0 0.00 0.00 0.00 40 1018.0
20260502224143 53 334 2.0 3.0 0.00 0.00 0.00 43 1018.0
20260502223643 53 339 1.0 3.0 0.00 0.00 0.00 44 1018.0
20260502223143 53 331 2.0 4.0 0.00 0.00 0.00 42 1018.0
20260502222643 54 337 1.0 2.0 0.00 0.00 0.00 42 1018.0
20260502222143 55 247 2.0 4.0 0.00 0.00 0.00 40 1018.0
20260502221644 55 285 2.0 7.0 0.00 0.00 0.00 40 1018.0
20260502221143 55 349 3.0 6.0 0.00 0.00 0.00 41 1018.0
20260502220643 55 296 2.0 5.0 0.00 0.00 0.00 39 1018.0
20260502220143 55 266 2.0 4.0 0.00 0.00 0.00 39 1018.0
20260502215643 55 352 2.0 3.0 0.00 0.00 0.00 38 1018.0
20260502215143 55 274 3.0 4.0 0.00 0.00 0.00 41 1018.0
20260502214643 55 265 4.0 6.0 0.00 0.00 0.00 39 1018.0
20260502214143 56 324 3.0 6.0 0.00 0.00 0.00 39 1018.0
20260502213643 56 347 2.0 3.0 0.00 0.00 0.00 39 1018.0
20260502213143 56 301 1.0 3.0 0.00 0.00 0.00 40 1018.0
20260502212643 57 295 2.0 4.0 0.00 0.00 0.00 38 1018.0
20260502212144 57 333 4.0 7.0 0.00 0.00 0.00 38 1017.0
20260502211643 56 335 4.0 7.0 0.00 0.00 0.00 39 1018.0
20260502211144 56 291 3.0 5.0 0.00 0.00 0.00 40 1018.0
20260502210643 56 269 6.0 15.0 0.00 0.00 0.00 41 1017.0
20260502210143 56 291 2.0 5.0 0.00 0.00 0.00 43 1017.0
20260502205643 55 339 4.0 7.0 0.00 0.00 0.00 42 1018.0
20260502205143 56 342 4.0 8.0 0.00 0.00 0.00 42 1018.0
20260502204643 54 276 2.0 4.0 0.00 0.00 0.00 42 1017.0
20260502204143 54 15 1.0 4.0 0.00 0.00 0.00 43 1018.0
20260502203643 55 317 3.0 5.0 0.00 0.00 0.00 41 1018.0
20260502203144 55 260 3.0 6.0 0.00 0.00 0.00 42 1018.0
20260502202643 54 252 2.0 4.0 0.00 0.00 0.00 44 1018.0